CFG2886 VTSP-EDDS

Flight info

Callsign CFG2886
Flight time N/A
Altitude 32000
Route UBNEN1A UBNEN L645 SAMAK DCT LAGOG N571 GURAS/N0495F340 N571 ALPOB L768 MODOG/N0493F360 L768 OBMON DCT TOKMA L602 TASMI DCT ODALI/N0474F380 UL852 NEGEM L852 KOMAN DCT MOPUG DCT NALOX DCT GOTAR DCT VATET DCT SBG DCT TITIG L173 MAH/N0444F240 L173 DODIL T127 TEKSI TEKSI5A
Aircraft A339/H-SADE1E2E3GHIJ3J5M1P2RWXY/LB2D1

Departure

Time 2026-04-28 17:15
Airport Phuket International Airport (VTSP)

Arrival

Time N/A
Airport Stuttgart Airport (EDDS)
Time Latitude Longitude Altitude Speed Heading
2026-04-28 16:19 8.10904 98.30545 44 ft 0 kts 104°
2026-04-28 17:08 8.10905 98.30541 44 ft 2 kts 104°
2026-04-28 17:09 8.10908 98.30530 44 ft 0 kts 104°
2026-04-28 17:09 8.10910 98.30518 43 ft 2 kts 98°
2026-04-28 17:09 8.10911 98.30503 43 ft 2 kts 86°
2026-04-28 17:09 8.10910 98.30489 43 ft 2 kts 77°
2026-04-28 17:10 8.10905 98.30474 43 ft 2 kts 66°
2026-04-28 17:10 8.10899 98.30461 44 ft 2 kts 57°
2026-04-28 17:10 8.10890 98.30449 44 ft 2 kts 47°
2026-04-28 17:10 8.10879 98.30438 44 ft 2 kts 37°
2026-04-28 17:11 8.10867 98.30431 45 ft 2 kts 27°
2026-04-28 17:11 8.10853 98.30424 45 ft 2 kts 17°
2026-04-28 17:11 8.10846 98.30422 45 ft 0 kts 13°
2026-04-28 17:12 8.10853 98.30424 45 ft 4 kts 14°
2026-04-28 17:13 8.10927 98.30446 42 ft 17 kts 15°
2026-04-28 17:13 8.11005 98.30419 40 ft 12 kts 306°
2026-04-28 17:13 8.11086 98.30347 39 ft 16 kts 346°
2026-04-28 17:13 8.11190 98.30366 38 ft 16 kts 61°
2026-04-28 17:14 8.11208 98.30512 41 ft 41 kts 85°
2026-04-28 17:14 8.11259 98.31016 47 ft 101 kts 83°
2026-04-28 17:14 8.11347 98.31897 84 ft 150 kts 84°
2026-04-28 17:14 8.11466 98.33080 159 ft 186 kts 83°
2026-04-28 17:15 8.11597 98.34392 700 ft 184 kts 82°
2026-04-28 17:15 8.11716 98.35645 1355 ft 179 kts 85°
2026-04-28 17:15 8.11746 98.36863 1948 ft 172 kts 87°
2026-04-28 17:15 8.11754 98.38089 2226 ft 178 kts 85°
2026-04-28 17:16 8.11889 98.39350 2427 ft 188 kts 81°
2026-04-28 17:16 8.12073 98.40700 2634 ft 199 kts 81°
2026-04-28 17:16 8.12249 98.42114 2850 ft 211 kts 82°
2026-04-28 17:16 8.12417 98.43630 3074 ft 224 kts 83°
2026-04-28 17:17 8.12581 98.45244 3312 ft 237 kts 84°
2026-04-28 17:17 8.12745 98.46936 3554 ft 250 kts 84°
2026-04-28 17:17 8.12915 98.48736 3821 ft 263 kts 84°
2026-04-28 17:17 8.13086 98.50571 4271 ft 267 kts 84°
2026-04-28 17:18 8.13260 98.52440 4804 ft 268 kts 84°
2026-04-28 17:18 8.13434 98.54314 5303 ft 270 kts 84°
2026-04-28 17:18 8.13609 98.56198 5786 ft 272 kts 84°
2026-04-28 17:18 8.13659 98.58098 6231 ft 275 kts 101°
2026-04-28 17:19 8.12886 98.59853 6641 ft 280 kts 129°
2026-04-28 17:19 8.11363 98.61054 7077 ft 284 kts 156°